www.pogodaiklimat.ru

Погода и климат >> Архив погоды >> Индонезия >> Понтианак


ПОГОДА в Понтианаке

  • Прогноз погоды в Понтианаке
  • Монитор погоды в Понтианаке

АРХИВ ПОГОДЫ в Понтианаке

Время (UTC), дата Ветер
(напр.,м/с)
 
Видим.   Явления Облачность Т
(С)
Тd
(С)
f
(%)
Тe
(С)
Тes
(С)
Комфортность P
(гПа)
Po
(гПа)
Тmin
(С)
Tmax
(С)
R
(мм)
R24
(мм)
S
(см)
00 16.09 штиль 0 300 м туман ?/? +22.4 +22.1 98 +30 +30 очень
душно
1011.4 1010.1 +21.6
03 16.09 ЮВ 2 200 м дым {туман} ?/? +24.6 +23.4 93 +33 +33 очень
душно
1011.9 1011.2
06 16.09 штиль 0 500 м дым {туман} ?/? +29.8 +23.5 69 +40 +40 очень
душно
1009.0 1008.3
09 16.09 штиль 0 900 м дым {туман} ?/? +32.0 +21.8 55 +41 +41 опасность
перегрева
1007.3 1006.6
12 16.09 ЮЗ 3 1000 м дым {туман} ?/? +26.9 +24.2 85 +37 +37 очень
душно
1008.7 1008.0 +32.3
15 16.09 штиль 0 700 м дым {туман} ?/? +24.4 +23.4 94 +33 +33 очень
душно
1011.0 1010.3
18 16.09 штиль 0 500 м дым {туман} ?/? +24.3 +23.3 94 +33 +33 очень
душно
1010.2 1009.5
21 16.09 штиль 0 800 м дым {туман} ?/? +24.6 +24.2 98 +34 +34 очень
душно
1010.2 1009.5
00 17.09 3 500 м дым {туман} ?/? +25.0 +24.1 95 +34 +34 очень
душно
1011.9 1011.2 +22.0
03 17.09 ЮВ 3 700 м дым {туман} ?/? +28.0 +23.8 78 +39 +39 очень
душно
1012.6 1011.9
06 17.09 2 900 м дым {туман} ?/? +31.4 +23.2 62 +42 +42 опасность
перегрева
1009.5 1008.8
09 17.09 В 2 100 м дым {туман} ?/? +32.2 +3.3 16 +30 +30 жарко 1008.5 1007.8
12 17.09 Ю 2 1500 м дым {туман} ?/? +27.6 +24.6 84 +39 +39 очень
душно
1010.0 1009.3 +32.5
15 17.09 Ю 2 1500 м дым {туман} ?/? +25.8 +24.7 94 +37 +37 очень
душно
1011.7 1011.0
18 17.09 штиль 0 600 м дым {туман} ?/? +24.6 +24.0 96 +34 +34 очень
душно
1010.9 1010.2
21 17.09 штиль 0 600 м дым {туман} ?/? +23.6 +22.7 95 +31 +31 очень
душно
1010.8 1010.1
00 18.09 ЮВ 2 600 м дым {туман} ?/? +24.5 +23.6 95 +33 +33 очень
душно
1012.5 1011.8 +23.6
03 18.09 ЮВ 3 1100 м дым {туман} ?/? +29.4 +23.0 68 +39 +39 очень
душно
1013.0 1012.3
06 18.09 Ю 2 2000 м дым {туман} ?/? +32.5 +22.4 55 +42 +42 опасность
перегрева
1009.9 1009.2
09 18.09 ЮВ 3 1300 м пыльная буря на расстоянии {гроза} ?/? +32.6 +22.1 54 +41 +41 опасность
перегрева
1008.6 1007.9
12 18.09 штиль 0 3000 м дым {туман} ?/? +27.1 +24.2 84 +38 +38 очень
душно
1010.6 1009.9 +33.7
15 18.09 Ю 2 4000 м дым {туман} ?/? +25.6 +24.0 91 +35 +35 очень
душно
1012.0 1011.7
18 18.09 штиль 0 5000 м дым 8/3 360 м
[Cu hum Ac trans Ci fib]
+25.0 +23.8 93 +34 +34 очень
душно
1011.1 1010.4
21 18.09 штиль 0 1500 м дым 8/3 360 м
[Cu hum Ac trans Ci fib]
+24.6 +23.7 95 +33 +33 очень
душно
1011.2 1010.5
00 19.09 В 3 400 м дым {туман} ?/? +24.8 +23.8 94 +34 +34 очень
душно
1012.9 1012.2 +23.9
03 19.09 ЮВ 3 1000 м дым {туман} ?/? +28.9 +23.6 73 +39 +39 очень
душно
1012.3 1011.6
06 19.09 штиль 0 1800 м дым {туман} ?/? +32.8 +22.7 55 +42 +42 опасность
перегрева
1009.1 1008.4
09 19.09 ЮЗ 4 1000 м дым {туман} ?/? +32.3 +25.3 67 +47 +47 опасность
перегрева
1008.8 1008.1
12 19.09 ЮЗ 2 1300 м дым {туман} ?/? +26.9 +24.2 85 +37 +37 очень
душно
1010.3 1009.6 +34.2
15 19.09 штиль 0 2600 м дым {туман} ?/? +25.3 +23.6 90 +34 +34 очень
душно
1011.9 1011.2
18 19.09 СЗ 2 1500 м дымка {туман} ?/? +24.0 +23.4 96 +32 +32 очень
душно
1010.7 1010.0
21 19.09 штиль 0 800 м дым {туман} ?/? +24.3 +23.7 96 +33 +33 очень
душно
1010.7 1010.0
00 20.09 Ю 2 400 м дым {туман} ?/? +24.8 +23.6 93 +34 +34 очень
душно
1012.0 1011.3 +23.6
03 20.09 В 2 400 м дым {туман} ?/? +28.3 +24.2 78 +39 +39 очень
душно
1012.0 1011.3
06 20.09 штиль 0 700 м дым {туман} ?/? +31.1 +23.7 65 +42 +42 опасность
перегрева
1009.6 1008.9
09 20.09 З 3 500 м дым {туман} 10/10 60 м
[]
+30.8 +25.2 72 +45 +45 опасность
перегрева
1008.4 1007.7
12 20.09 ЮЗ 3 1700 м дым {туман} ?/? +26.7 +24.6 88 +38 +38 очень
душно
1010.2 1009.5 +32.3
15 20.09 штиль 0 1500 м дым {туман} ?/? +25.6 +24.5 94 +36 +36 очень
душно
1011.8 1011.1
18 20.09 штиль 0 1200 м дым {туман} ?/? +24.6 +24.0 96 +34 +34 очень
душно
1010.8 1010.1
21 20.09 штиль 0 2000 м дым {туман} ?/? +23.8 +23.2 96 +32 +32 очень
душно
1010.6 1009.9
00 21.09 штиль 0 1200 м дым {туман} ?/? +24.8 +23.9 95 +34 +34 очень
душно
1012.5 1011.8 +23.6
03 21.09 В 2 1000 м дым {туман} ?/? +28.2 +23.3 75 +38 +38 очень
душно
1012.1 1011.4
06 21.09 Ю 2 800 м дым {туман} ?/? +30.8 +23.5 65 +42 +42 опасность
перегрева
1009.1 1008.4
09 21.09 Ю 3 1200 м дым {туман} ?/? +31.0 +24.3 68 +43 +43 опасность
перегрева
1008.1 1007.4
12 21.09 Ю 2 2400 м дым {туман} ?/? +27.0 +23.8 83 +37 +37 очень
душно
1009.8 1009.1 +31.4
15 21.09 Ю 2 3000 м дым {туман} ?/? +25.6 +23.7 89 +35 +35 очень
душно
1011.4 1010.7
18 21.09 штиль 0 2000 м дым {туман} ?/? +24.7 +23.7 94 +34 +34 очень
душно
1010.6 1009.9
21 21.09 Ю 2 2000 м дым {туман} ?/? +24.7 +23.8 95 +34 +34 очень
душно
1010.2 1009.6
00 22.09 ЮВ 2 700 м дым {туман} ?/? +25.1 +23.8 93 +34 +34 очень
душно
1012.6 1011.9 +23.6
03 22.09 В 3 2000 м дым {туман} ?/? +29.6 +24.5 74 +42 +42 опасность
перегрева
1012.5 1011.8
06 22.09 В 2 2000 м дым {туман} ?/? +32.5 +24.8 64 +46 +46 опасность
перегрева
1009.8 1009.1
09 22.09 З 3 1800 м дым {туман} ?/? +32.0 +25.6 69 +47 +47 опасность
перегрева
1008.9 1008.2
12 22.09 ЮЗ 2 2000 м гроза без осадков {туман} 8/5 330 м
[Cb cap Ac trans]
+27.7 +25.3 87 +40 +40 очень
душно
1010.7 1010.0 +33.4
15 22.09 ЮВ 2 3000 м {гроза} 8/5 360 м
[Cu hum Ac trans]
+26.9 +24.8 88 +38 +38 очень
душно
1012.5 1011.8
18 22.09 штиль 0 3000 м дым {гроза, туман} 8/5 330 м
[Cb cap Ac trans]
+26.2 +24.6 91 +37 +37 очень
душно
1011.0 1010.3
21 22.09 штиль 0 2000 м в посл. час дождь {гроза} 9/6 330 м
[Cb cap Ac As]
+25.4 +24.7 96 +36 +36 очень
душно
1011.1 1010.4 2

 

Местоположение метеостанции Понтианак (Индонезия): широта -0.15 долгота 109.40 высота над уровнем моря 3 м.

В архиве по умолчанию представлена погода в Понтианаке за последнюю неделю. Архивные данные за месяц целиком и за предыдущие месяцы, начиная с января 2011 года, Вы можете получить, выбрав интересующий диапазон дат из раскрывающегося списка и нажав кнопку "Ввод!".


*Определитесь, кто Вы:
робот инопланетянин человек

Внимание! Время в таблицах - всемирное. Для получения местного времени необходимо прибавить поправку, которая равна 7 ч.

Смотрите также архив погоды в соседних городах и на ближайших метеорологических станциях:

Погода в Кетапанге (Индонезия) (199 км)
Погода в Кучинге (Малайзия) (209 км)
Погода в Парохе (Индонезия) (214 км)
Погода в Синтанге (Индонезия) (239 км)
Погода в Нангапинохе (Индонезия) (266 км)
Погода в Танджунгпандане (Индонезия) (342 км)
Погода в Пангкалан-Буне (Индонезия) (382 км)
Погода в Сибу (Малайзия) (386 км)
Погода на Путусиббау (Индонезия) (409 км)
Погода в Панкалпинанге (Индонезия) (427 км)

Пояснения к столбцам:

Ветер - указаны скорость ветра в м/с - средняя за 10 мин, порывы в срок и между сроками (в фигурных скобках) и направление, откуда дует ветер: С - северный, СВ - северо-восточный, В - восточный, ЮВ - юго-восточный, Ю - южный, ЮЗ - юго-западный, З - западный, СЗ - северо-западный.
Видимость - горизонтальная дальность видимости в метрах или километрах. При видимости от 1 до 10 км при отсутствии осадков обычно наблюдается дымка, при ухудшении видимости до 1 км и менее - туман. В сухую погоду видимость может ухудшаться дымом, пылью или мглою.
Явления - указаны атмосферные явления, наблюдавшиеся в срок или в последний час перед сроком; фигурными скобками обозначены явления, наблюдавшиеся между сроками (за 1-3 часа до срока); квадратными скобками обозначены град или гололедные отложения с указанием их диаметра в мм.
Облачность - указаны через наклонную черту общая и нижняя облачность в баллах и высота нижней границы облаков в метрах; квадратными скобками обозначены формы облаков: Ci - перистые, Cs - перисто-слоистые, Cc - перисто-кучевые, Ac - высококучевые, As - высокослоистые, Sc - слоисто-кучевые, Ns - слоисто-дождевые, Cu - кучевые, Cb - кучево-дождевые. Подробнее классификацию облаков см. в Атласе облаков (PDF).
T - Температура воздуха - температура, измеренная на высоте 2 м над землей.
Td - Температура точки росы - температура, при понижении до которой содержащийся в воздухе водяной пар достигнет насыщения.
f - Относительная влажность воздуха - влажноcть воздуха, измеренная на высоте 2 м над землей.
Te - Эффективная температура - температура, которую ощущает одетый по сезону человек в тени. Характеристика душности погоды. При расчете учитывается влияние влажности воздуха и скорости ветра на теплоощущения человека.
Tes - Эффективная температура на солнце - температура, которую ощущает человек, с поправкой на солнечный нагрев. Характеристика знойности погоды. Зависит от высоты солнца над горизонтом, облачности и скорости ветра. Ночью, в пасмурную погоду, а также при ветре 12 м/с и более поправка равна нулю.
P - Атмосферное давление - приведенное к уровню моря атмосферное давление.
Po - Атмосферное давление - измеренное на уровне метеостанции атмосферное давление.
Tmin - Минимальная температура - минимум температуры воздуха на высоте 2 м над землей.
Tmax - Максимальная температура - максимум температуры воздуха на высоте 2 м над землей.
R - Количество осадков - Количество выпавших осадков за период времени, мм. При наведении курсора мыши на число - период времени, за который выпало указанное количество осадков.
R24 - Количество осадков - Количество выпавших осадков за 24 часа, мм.
S - Снежный покров - Высота снежного покрова, см. При наведении курсора мыши на число - состояние снежного покрова и степень покрытия местности в баллах.